Regional Weather Roundup
Issued by NWS Charleston, SC

Current Version | Previous Version | Text Only | Print | Product List | Glossary Off
Versions: 1 2 3 4 5 6 7 8 9 10 11 12 13 14 15 16 17 18 19 20 21 22 23 24 25 26 27 28 29 30 31 32 33 34 35 36 37 38 39 40 41 42 43 44 45 46 47 48 49 50

000
ASUS42 KCHS 011512
RWRCHS

REGIONAL WEATHER ROUNDUP
NATIONAL WEATHER SERVICE CHARLESTON SC
1100 AM EDT TUE SEP 01 2015

NOTE: "FAIR" INDICATES FEW OR NO CLOUDS BELOW 12,000 FEET WITH NO
SIGNIFICANT WEATHER AND/OR OBSTRUCTIONS TO VISIBILITY.

NOT ALL STATIONS ARE QUALITY CONTROLLED BY THE NATIONAL
WEATHER SERVICE. USE DATA WITH CAUTION...ESPECIALLY
DEWPOINT OBSERVATIONS.

SCZ027-030-031-034>040-042>050-011600-
...SOUTHEAST SOUTH CAROLINA...

CITY           SKY/WX    TMP DP  RH WIND       PRES   REMARKS
N CHARLESTON   MOSUNNY   85  71  63 VRB5      30.12S HX  90
WATERFRONT PRK   N/A     83  73  71 N6        30.10S
MOUNT PLEASANT FAIR      84  73  70 N5        30.12S HX  91
JOHNS ISLAND   FAIR      84  73  70 N6        30.12S HX  91
PINOPOLIS        N/A     82  73  74 N5        30.04F
MONCKS CORNER  FAIR      84  72  65 NE7       30.12S
SUMMERVILLE    FAIR      82  72  69 N6        30.13S
BEAUFORT MCAS  MOSUNNY   82  73  74 N6        30.12S
BEAUFORT ARPT  FAIR      82  73  74 CALM      30.11S
HILTON HEAD IS MOSUNNY   81  72  74 N7        30.14R
WALTERBORO     MOSUNNY   86  70  58 N7        30.13S HX  90
ALLENDALE      FAIR      82  72  69 VRB6      30.12F

...SOUTHERN MIDLANDS AND PEE DEE...

CITY           SKY/WX    TMP DP  RH WIND       PRES   REMARKS
GEORGETOWN     NOT AVBL
KINGSTREE      NOT AVBL
ORANGEBURG     MOSUNNY   85  68  56 NW6       30.13F
BARNWELL       FAIR      84  72  65 N5        30.14S
AIKEN          FAIR      81  64  57 W3        30.17F
MANNING        FAIR      81  68  65 NW3       30.13S
COLUMBIA       MOSUNNY   85  69  58 CALM      30.13S
SUMTER         SUNNY     85  68  58 NW5       30.11F
FLORENCE       SUNNY     84  71  65 CALM      30.13S
MYRTLE BEACH   SUNNY     82  70  65 VRB5      30.14S
N MYRTLE BEACH SUNNY     82  72  71 VRB5      30.12S

$$

GAZ063-065-086>088-099>101-113>116-118-119-134>141-150-011600-
...SOUTHEAST GEORGIA...

CITY           SKY/WX    TMP DP  RH WIND       PRES   REMARKS
SAVANNAH ARPT  PTSUNNY   83  73  72 VRB3      30.12S
HUNTER AAF     PTSUNNY   82  77  84 VRB5      30.10R HX  90
FORT STEWART   CLOUDY    81  73  76 CALM      30.10R
STATESBORO     MOSUNNY   83  79  88 N5        30.13R FOG     HX  93
SYLVANIA       SUNNY     84  75  73 NE5       30.14S HX  91
CLAXTON        NOT AVBL

...CSRA...CENTRAL AND FAR SOUTHEAST GEORGIA...

CITY           SKY/WX    TMP DP  RH WIND       PRES   REMARKS
THOMSON        SUNNY     83  73  73 CALM      30.19F
AUGUSTA-BUSH   SUNNY     83  70  64 N7        30.12F
AUGUSTA-DANIEL PTSUNNY   83  71  67 VRB3      30.15F
SWAINSBORO     FAIR      84  68  58 NE6       30.14S
VIDALIA        MOSUNNY   81  73  78 N3        30.13S
EASTMAN        FAIR      85  74  70 NE3       30.15S HX  92
HAZLEHURST     PTSUNNY   87  72  61 NE6       30.11S HX  93
ALMA           MOSUNNY   82  76  81 NE6       30.12R
WAYCROSS       CLOUDY    84  80  89 E5        30.11S HX  97
JESUP          CLOUDY    82  79  89 E3        30.12R HX  93
BAXLEY         FAIR      84  77  79 E5        30.12S HX  94
BRUNSWICK      PTSUNNY   82  77  83 N5        30.11S HX  91
SAINT SIMONS   HVY RAIN  76  75  97 N9        30.11R VSB 1/4

$$

SCZ027-028-034-036>038-045-046-048>050-GAZ119-141-011600-
...LAKE AND SUPPLEMENTAL COASTAL OBSERVATIONS...

STATION/POSITION TIME  TEMP    WIND        PRES    WAVE   SWELL
                       AIR SEA DIR/SP/G            HT/PER HT/PER/DIR
                 (UTC) (F)     (DEG/KT/KT) (MB)    (FT/S) (FT/S/D)
UPR LAKE MARION  NOT AVBL
WINYAH BAY       NOT AVBL
LAKE MURRAY      1400   80     270/  2/  2 1020.0S
ACE BASIN NERRS  NOT AVBL
FORT PULASKI     1400   80 83   10/  7/  9 1019.9F
SAPELO ISLAND    1400   80      30/  4     1019.0S

$$

ANZ835-935-AMZ111-154-330-350-352-354-370-450-454-472-011600-
...C-MAN AND BUOY OBSERVATIONS...

STATION/POSITION TIME  TEMP    WIND        PRES    WAVE   SWELL
                       AIR SEA DIR/SP/G            HT/PER HT/PER/DIR
                 (UTC) (F)     (DEG/KT/KT) (MB)    (FT/S) (FT/S/D)
BUOY 41004       1450   81 83   10/  8/ 10 1019.3R   2/ 8   2/ 8
BUOY 41008       1450   81 84  140/  4/  8 1019.6R   2/ 8   2/100/ 8
FOLLY BEACH CMAN 1400   81     350/  7/  8 1020.1R
CAPERS NEARSHORE 1408   80      10/  6/  8 1020.1R
FRIPP NEARSHORE  1400   80      20/ 10/ 12 1019.4R


STATION/POSITION TIME  TEMP    WIND        PRES    WAVE   SWELL
                       AIR SEA DIR/SP/G            HT/PER HT/PER/DIR
                 (UTC) (F)     (DEG/KT/KT) (MB)    (FT/S) (FT/S/D)
5E ST. MARYS GA  1421      85                N/A     2/ 8
FRYING PAN BUOY  1450   79 81  320/ 12/ 14 1020.1R   2/ 9   2/110/ 9
BUOY 41025       1450   79 84  350/  8/ 10 1018.8R   3/ 6   3/180/ 6
CAPE LOOKOUT NC  1400   78     310/  5/  6 1018.9R
BUOY 41002       1450   84 84  250/ 10/ 12 1019.6R   3/ 6   2/210/ 6
BUOY 41010       1420   85 86  180/  4/  4 1020.0R
ST AUGUSTINE FL  1500   80 83  150/  7/  8 1019.9R


$$


USA.gov is the U.S. government's official web portal to all federal, state and local government web resources and services.